Flag for Malta Weather past 2 weeks in Valletta, Malta

Now
84 °F

Sunny.


Feels Like: 88 °F
Forecast: 71 / 89 °F
Wind: 5 mph from North

Location: Luqa

Current Time: Jul 25, 2014 at 5:28:17 PM

Latest Report: Jul 25, 2014 at 4:45 PM


Visibility: 10 mi

Pressure: 29.92 "Hg

Humidity: 62%

Dew point: 70 °F

Location of VallettaLocation

Historic Weather in Valletta — Graph

°F

Valletta temperature yesterday

Maximum temperature yesterday: 84 °F (at 12:15 PM)
Minimum temperature yesterday: 70 °F (at 2:45 AM)
Average temperature yesterday: 76 °F

Past Weeks' High & Low Weather Summary

 TemperatureHumidityPressure
High91 °F (Jul 21, 1:15 PM)94% (Jul 19, 3:15 AM)30.04 "Hg (Jul 19, 3:15 AM)
Low68 °F (Jul 13, 5:15 AM)20% (Jul 21, 2:15 PM)29.86 "Hg (Jul 10, 4:15 PM)
Average77 °F63%29.97 "Hg
* Reported Jul 10 4:15 PM — Jul 25 4:15 PM, Valletta, Weather by CustomWeather, © 2014

Note: Actual official high and low records may vary slightly from our data, if they occured in-between our weather recording intervals... More about our weather records

Advertising

Valletta weather history for previous 24 hours

 ConditionsComfort  
Time TempWeatherWind HumidityBarometerVisibility
4:15 PM
Jul 25
86 °FSunny.5 mph59%29.95 "Hg10 mi
3:45 PM86 °FPassing clouds.5 mph59%29.95 "HgN/A
3:15 PM86 °FPassing clouds.3 mph55%29.95 "HgN/A
2:45 PM84 °FPassing clouds.8 mph62%29.95 "HgN/A
2:15 PM86 °FPassing clouds.7 mph59%29.95 "HgN/A
1:45 PM84 °FPassing clouds.6 mph62%29.95 "HgN/A
1:15 PM84 °FPassing clouds.8 mph62%29.95 "HgN/A
12:45 PM84 °FPassing clouds.9 mph62%29.95 "HgN/A
12:15 PM84 °FPassing clouds.3 mph62%29.95 "HgN/A
11:45 AM82 °FSunny.7 mph66%29.95 "Hg10 mi
11:15 AM84 °FPassing clouds.8 mph58%29.95 "HgN/A
10:45 AM82 °FPassing clouds.3 mph58%29.95 "HgN/A
10:15 AM82 °FPassing clouds.3 mph62%29.95 "HgN/A
9:45 AM81 °FPassing clouds.3 mph66%29.95 "HgN/A
9:15 AM79 °FPassing clouds.5 mph70%29.95 "HgN/A
8:45 AM77 °FScattered clouds.6 mph79%29.95 "HgN/A
8:15 AM75 °FScattered clouds.7 mph83%29.95 "HgN/A
7:45 AM73 °FPassing clouds.3 mph89%29.95 "HgN/A
7:15 AM72 °FPassing clouds.5 mph94%29.95 "Hg6 mi
6:45 AM70 °FPassing clouds.2 mph94%29.92 "HgN/A
6:15 AM70 °FPassing clouds.3 mph94%29.92 "Hg6 mi
5:45 AM70 °FPassing clouds.3 mph88%29.92 "HgN/A
5:15 AM70 °FPassing clouds.2 mph88%29.89 "HgN/A
4:45 AM70 °FFog.1 mph94%29.89 "HgN/A
4:15 AM70 °FPassing clouds.3 mph94%29.89 "HgN/A
3:45 AM70 °FClear.7 mph94%29.89 "Hg10 mi
3:15 AM70 °FPassing clouds.3 mph94%29.89 "HgN/A
2:45 AM70 °FClear.6 mph94%29.89 "Hg10 mi
2:15 AM70 °FClear.5 mph94%29.92 "Hg10 mi
1:45 AM70 °FPassing clouds.6 mph94%29.92 "HgN/A
1:15 AM72 °FClear.3 mph88%29.92 "Hg10 mi
12:45 AM72 °FClear.3 mph88%29.95 "Hg10 mi
12:15 AM72 °FClear.2 mph88%29.95 "Hg10 mi
11:45 PM
Jul 24
72 °FClear.3 mph88%29.95 "Hg10 mi
11:15 PM72 °FPassing clouds.6 mph88%29.95 "HgN/A
10:45 PM73 °FClear.5 mph83%29.95 "Hg10 mi
10:15 PM73 °FClear.2 mph83%29.95 "Hg10 mi
9:45 PM73 °FPassing clouds.3 mph83%29.92 "HgN/A
9:15 PM73 °FPassing clouds.7 mph83%29.92 "HgN/A
8:45 PM73 °FPassing clouds.7 mph83%29.92 "HgN/A
8:15 PM75 °FPassing clouds.7 mph78%29.92 "HgN/A
7:45 PM77 °FPassing clouds.8 mph69%29.92 "HgN/A
7:15 PM79 °FPassing clouds.12 mph65%29.92 "HgN/A
6:45 PM79 °FPassing clouds.12 mph65%29.92 "HgN/A
6:15 PM81 °FPassing clouds.8 mph58%29.89 "HgN/A
5:45 PM82 °FPassing clouds.9 mph51%29.89 "HgN/A
5:15 PM82 °FPassing clouds.10 mph55%29.89 "HgN/A
Weather by CustomWeather, © 2014

See weather overviewHow to use our weather pages